Lebanon, Oregon, United States (97355)
Lat: 44.54N, Lon: 122.91W
Wx Zone: ORZ008
Local Info
Past Weather Observations for Today

NOTE: This archive is for the closest National Weather Service station to Lebanon. Information may differ from the station used for current weather conditions.

Click here for Long-term Archive

Time Weather Temperature Dewpoint Humidity Pressure Winds Precip Visibility
20:55
Fair
66°F / 19°C 54°F / 12°C 64% 30.06 in
(1018 mb)
NW 15 mph
(NW 24 kph)
- 10SM
20:35
Fair
66°F / 19°C 54°F / 12°C 64% 30.06 in
(1018 mb)
NW 13.8 mph
(NW 22 kph)
- 10SM
20:15
Fair
66°F / 19°C 55°F / 13°C 68% 30.04 in
(1017 mb)
NW 13.8 mph
(NW 22 kph)
- 10SM
19:55
Fair
68°F / 20°C 55°F / 13°C 64% 30.04 in
(1017 mb)
NW 15 mph
(NW 24 kph)
- 10SM
19:35
Fair
68°F / 20°C 55°F / 13°C 64% 30.04 in
(1017 mb)
WNW 12.7 mph
(WNW 20 kph)
- 10SM
19:15
Fair
70°F / 21°C 55°F / 13°C 60% 30.04 in
(1017 mb)
NW 16.1 mph
(NW 26 kph)
- 10SM
18:55
Fair
72°F / 22°C 55°F / 13°C 57% 30.04 in
(1017 mb)
NW 17.3 mph
(NW 28 kph)
- 10SM
18:35
Fair
73°F / 23°C 55°F / 13°C 53% 30.04 in
(1017 mb)
NW 17.3 mph
(NW 28 kph)
- 10SM
18:15
Fair
73°F / 23°C 54°F / 12°C 50% 30.01 in
(1016 mb)
NW 15 mph
(NW 24 kph)
- 10SM
17:55
Fair
75°F / 24°C 54°F / 12°C 47% 30.01 in
(1016 mb)
NW 16.1 mph
(NW 26 kph)
- 10SM
17:35
Fair
79°F / 26°C 54°F / 12°C 42% 30.01 in
(1016 mb)
NW 17.3 mph
(NW 28 kph)
- 10SM
17:15
Fair
81°F / 27°C 54°F / 12°C 39% 30.01 in
(1016 mb)
NW 13.8 mph
(NW 22 kph)
- 10SM
16:55
Fair
82°F / 28°C 55°F / 13°C 40% 30.01 in
(1016 mb)
NW 11.5 mph
(NW 19 kph)
- 10SM
16:35
Fair
82°F / 28°C 55°F / 13°C 40% 30.01 in
(1016 mb)
NW 12.7 mph
(NW 20 kph)
- 10SM
16:15
Fair
84°F / 29°C 55°F / 13°C 37% 30.01 in
(1016 mb)
NW 15 mph
(NW 24 kph)
- 10SM
15:55
Fair
88°F / 31°C 57°F / 14°C 35% 30.01 in
(1016 mb)
NW 18.4 mph
(NW 30 kph)
- 10SM
15:35
Fair
91°F / 33°C 57°F / 14°C 32% 30.01 in
(1016 mb)
NW 16.1 mph
(NW 26 kph)
- 10SM
15:15
Fair
91°F / 33°C 55°F / 13°C 30% 30.01 in
(1016 mb)
ENE 4.6 mph
(ENE 7 kph)
- 7SM
14:55
Fair
93°F / 34°C 57°F / 14°C 30% 30.01 in
(1016 mb)
SE 3.5 mph
(SE 6 kph)
- 10SM
14:35
Fair
91°F / 33°C 55°F / 13°C 30% 30.01 in
(1016 mb)
E 4.6 mph
(E 7 kph)
- 10SM
14:15
Fair
91°F / 33°C 57°F / 14°C 32% 30.01 in
(1016 mb)
Calm - 10SM
13:55
Fair
90°F / 32°C 57°F / 14°C 33% 30.04 in
(1017 mb)
ESE 4.6 mph
(ESE 7 kph)
- 9SM
13:35
Fair
90°F / 32°C 57°F / 14°C 33% 30.04 in
(1017 mb)
SSE 3.5 mph
(SSE 6 kph)
- 8SM
13:15
Fair
88°F / 31°C 57°F / 14°C 35% 30.04 in
(1017 mb)
NNE 3.5 mph
(NNE 6 kph)
- 9SM
12:55
Fair
88°F / 31°C 59°F / 15°C 38% 30.04 in
(1017 mb)
E 5.8 mph
(E 9 kph)
- 10SM
12:35
Fair
84°F / 29°C 57°F / 14°C 40% 30.04 in
(1017 mb)
Calm - 10SM
12:15
Fair
82°F / 28°C 57°F / 14°C 42% 30.06 in
(1018 mb)
NNW 3.5 mph
(NNW 6 kph)
- 10SM
11:55
Fair
81°F / 27°C 57°F / 14°C 45% 30.06 in
(1018 mb)
NNW 4.6 mph
(NNW 7 kph)
- 10SM
11:35
Fair
79°F / 26°C 55°F / 13°C 45% 30.06 in
(1018 mb)
NW 6.9 mph
(NW 11 kph)
- 9SM
11:15
Fair
77°F / 25°C 55°F / 13°C 47% 30.06 in
(1018 mb)
Calm - 10SM
10:55
Fair
77°F / 25°C 55°F / 13°C 47% 30.06 in
(1018 mb)
E 3.5 mph
(E 6 kph)
- 10SM
10:35
Fair
75°F / 24°C 55°F / 13°C 50% 30.06 in
(1018 mb)
SE 4.6 mph
(SE 7 kph)
- 10SM
10:15
Fair
75°F / 24°C 55°F / 13°C 50% 30.06 in
(1018 mb)
Calm - 10SM
09:55
Fair
72°F / 22°C 55°F / 13°C 57% 30.09 in
(1019 mb)
Calm - 10SM
09:35
Fair
72°F / 22°C 55°F / 13°C 57% 30.09 in
(1019 mb)
Calm - 9SM
09:15
Fair
70°F / 21°C 55°F / 13°C 60% 30.09 in
(1019 mb)
Calm - 10SM
08:55
Fair
66°F / 19°C 55°F / 13°C 68% 30.09 in
(1019 mb)
Calm - 10SM
08:35
Fair
64°F / 18°C 55°F / 13°C 73% 30.09 in
(1019 mb)
Calm - 10SM
08:15
Fair
61°F / 16°C 55°F / 13°C 83% 30.09 in
(1019 mb)
Calm - 10SM
07:55
Fair
57°F / 14°C 54°F / 12°C 88% 30.09 in
(1019 mb)
Calm - 10SM
07:35
Fair
55°F / 13°C 52°F / 11°C 88% 30.09 in
(1019 mb)
Calm - 10SM
07:15
Fair
54°F / 12°C 52°F / 11°C 94% 30.09 in
(1019 mb)
Calm - 10SM
06:55
Fair
52°F / 11°C 48°F / 9°C 88% 30.09 in
(1019 mb)
Calm - 10SM
06:35
Fair
50°F / 10°C 46°F / 8°C 88% 30.09 in
(1019 mb)
Calm - 5SM
06:15
Fair
48°F / 9°C 46°F / 8°C 94% 30.09 in
(1019 mb)
Calm - 10SM
05:55
Fair
48°F / 9°C 46°F / 8°C 94% 30.09 in
(1019 mb)
Calm - 10SM
05:35
Fair
50°F / 10°C 46°F / 8°C 88% 30.09 in
(1019 mb)
Calm - 10SM
05:15
Fair
52°F / 11°C 48°F / 9°C 88% 30.09 in
(1019 mb)
Calm - 10SM
04:55
Fair
50°F / 10°C 46°F / 8°C 88% 30.09 in
(1019 mb)
Calm - 10SM
04:35
Fair
52°F / 11°C 46°F / 8°C 82% 30.09 in
(1019 mb)
Calm - 10SM
04:15
Fair
50°F / 10°C 46°F / 8°C 88% 30.09 in
(1019 mb)
Calm - 10SM
03:55
Fair
52°F / 11°C 46°F / 8°C 82% 30.09 in
(1019 mb)
Calm - 10SM
03:35
Fair
52°F / 11°C 46°F / 8°C 82% 30.09 in
(1019 mb)
Calm - 10SM
03:15
Fair
54°F / 12°C 50°F / 10°C 88% 30.09 in
(1019 mb)
Calm - 10SM
02:55
Fair
54°F / 12°C 48°F / 9°C 82% 30.09 in
(1019 mb)
Calm - 10SM
02:35
Fair
54°F / 12°C 48°F / 9°C 82% 30.09 in
(1019 mb)
Calm - 10SM
02:15
Fair
54°F / 12°C 48°F / 9°C 82% 30.09 in
(1019 mb)
Calm - 10SM
01:55
Fair
54°F / 12°C 48°F / 9°C 82% 30.09 in
(1019 mb)
Calm - 10SM
01:35
Fair
55°F / 13°C 52°F / 11°C 88% 30.09 in
(1019 mb)
Calm - 10SM
01:15
Fair
55°F / 13°C 50°F / 10°C 82% 30.12 in
(1020 mb)
Calm - 10SM
00:55
Fair
57°F / 14°C 52°F / 11°C 82% 30.12 in
(1020 mb)
Calm - 10SM
00:35
Fair
57°F / 14°C 54°F / 12°C 88% 30.12 in
(1020 mb)
Calm - 10SM
00:15
Fair
59°F / 15°C 54°F / 12°C 82% 30.12 in
(1020 mb)
Calm - 10SM
Time Weather Temperature Dewpoint Humidity Pressure Winds Precip Visibility


Weather for websites

WeatherForYou.com, LLC is not responsible for any damages or problems caused by this service. Current weather conditions are obtained from the closest station including government and personal stations which may have varying degrees of accuracy. Weather forecasts are derived from the NOAA NDFD. Like all things, this site belongs to Jesus Christ... He just trusts us to maintain it. If you have any questions or comments email webmaster@weatherforyou.com

Copyright © 2016, WeatherForYou.com LLC. All rights reserved.